Location: Aulus
(42.7909°N, 1.3399°E)
Time: 20:02:04
(UTC+00:00)

Cosmos 864 Rocket - Pass Details

Date: 19 May 2025
Orbit: 953 x 989 km, 82.9° (Epoch: 21 June)

Event Time Altitude Azimuth Distance (km) Brightness Sun altitude
Rises 21:20:54 0° 353° (N) 3,689 8.6 -18.3°
Reaches altitude 10° 21:23:25 10° 355° (N) 2,742 7.7 -18.6°
Maximum altitude 21:29:44 78° 82° (E) 1,010 4.5 -19.3°
Enters shadow 21:32:53 32° 164° (SSE) 1,628 5.1 -19.6°
